Weather History for LIRK - October, 2012

Change the Weather History Date:

Saturday, October 13, 2012

  Actual Average Record
Temperature  
Mean Temperature 44 °F -  
Max Temperature 46 °F 47 °F 64 °F (2001)
Min Temperature 42 °F 39 °F 32 °F (1998)
Degree Days  
Heating Degree Days 21    
Moisture  
Dew Point 41 °F    
Average Humidity 89    
Maximum Humidity 93    
Minimum Humidity 83    
Precipitation  
Precipitation 0.00 in - - ()
Sea Level Pressure  
Sea Level Pressure 30.04 in    
Wind  
Wind Speed 7 mph ()    
Max Wind Speed 12 mph    
Max Gust Speed -    
Visibility 2.6 miles    
Events Fog , Rain    
Averages and records for this station are not official NWS values.
T = Trace of Precipitation, MM = Missing Value Source: Averaged Metar Reports

Daily Weather History Graph

Daily Weather History Graph

Search for Another Location

Airport or City:

Trip Planner

Search our weather history database for the weather conditions in past years. The results will help you decide how hot, cold, wet, or windy it might be!

Date:

Astronomy

Oct. 13, 2012 Rise Set
Actual Time 7:18 AM CEST 6:28 PM CEST
Civil Twilight 6:50 AM CEST 6:57 PM CEST
Nautical Twilight 6:18 AM CEST 7:29 PM CEST
Astronomical Twilight 5:45 AM CEST 8:02 PM CEST
Moon 4:47 AM CEST (10/13) 5:04 PM CEST (10/13)
Length of Visible Light 12h 06m
Length of Day
11h 09m
Waning Crescent, 6% of the Moon is Illuminated
Oct 13
Waning Crescent
Oct 15
New
Oct 22
First Quarter
Oct 29
Full
Nov 7
Last Quarter

Hourly Weather History & Observations

Time (CEST) Temp. Dew Point Humidity Pressure Visibility Wind Dir Wind Speed Gust Speed Precip Events Conditions
1:55 AM 44.6 °F 41.0 °F 87% 30.06 in 0.0 mi North - - N/A Fog Fog
2:00 AM 44 °F 41 °F 83%  in 0 mi West 11.5 mph - -  
2:55 AM 44.6 °F 41.0 °F 87% 30.06 in 0.0 mi North - - N/A Fog Fog
3:55 AM 44.6 °F 41.0 °F 87% 30.06 in 0.0 mi North - - N/A Fog Fog
4:55 AM 44.6 °F 41.0 °F 87% 30.06 in 0.0 mi North - - N/A Fog Fog
5:55 AM 42.8 °F 39.2 °F 87% 30.06 in 0.0 mi North - - N/A Fog Fog
6:55 AM 42.8 °F 41.0 °F 93% 30.06 in 0.0 mi North - - N/A Fog Fog
7:55 AM 42.8 °F 41.0 °F 93% 30.04 in - North - - N/A   Partly Cloudy
8:00 AM 43 °F 40 °F 85%  in 12 mi ENE 4.6 mph - -  
8:55 AM 42.8 °F 41.0 °F 93% 30.04 in - North - - N/A   Mostly Cloudy
9:55 AM 42.8 °F 39.2 °F 87% 30.06 in - North - - N/A   Scattered Clouds
10:55 AM 42.8 °F 41.0 °F 93% 30.06 in - North - - N/A   Scattered Clouds
11:55 AM 42.8 °F 41.0 °F 93% 30.06 in - North - - N/A   Scattered Clouds
12:55 PM 44.6 °F 41.0 °F 87% 30.06 in - North - - N/A   Scattered Clouds
1:55 PM 44.6 °F 41.0 °F 87% 30.06 in - North - - N/A   Scattered Clouds
2:00 PM 44 °F 41 °F 83%  in 16 mi NE 9.2 mph - -  
2:55 PM 44.6 °F 42.8 °F 93% 30.06 in - North - - N/A   Scattered Clouds
3:55 PM 46.4 °F 42.8 °F 87% 30.04 in 0.0 mi North - - N/A Fog , Rain Heavy Rain
4:55 PM 46.4 °F 42.8 °F 87% 30.04 in 0.0 mi North - - N/A Fog , Rain Light Rain
5:55 PM 46.4 °F 42.8 °F 87% 30.04 in - North - - N/A   Scattered Clouds
7:55 PM 44.6 °F 42.8 °F 93% 30.01 in - North - - N/A   Scattered Clouds
8:00 PM 45 °F 43 °F 91%  in 9 mi South 11.5 mph - -  
8:55 PM 44.6 °F 42.8 °F 93% 29.98 in - North - - N/A   Scattered Clouds
9:55 PM 44.6 °F 42.8 °F 93% 29.98 in - North - - N/A   Scattered Clouds
10:55 PM 44.6 °F 42.8 °F 93% 29.98 in 0.0 mi North - - N/A Fog Fog
11:55 PM 44.6 °F 41.0 °F 87% 29.98 in 0.0 mi North - - N/A Fog Fog